Location: Banios
(43.0451°N, 0.2335°E)
Time: 12:42:18
(UTC+00:00)

SJ-7 - Pass Details

Date: 25 January 2021
Orbit: 554 x 603 km, 97.7° (Epoch: 25 February)

Event Time Altitude Azimuth Distance (km) Brightness Sun altitude
Rises 06:03:25 0° 8° (N) 2,827 7.9 -14.2°
Reaches altitude 10° 06:05:38 10° 5° (N) 1,914 7.0 -13.8°
Maximum altitude 06:09:42 58° 286° (WNW) 675 4.4 -13.1°
Drops below altitude 10° 06:13:41 10° 207° (SSW) 1,870 6.9 -12.4°
Sets 06:15:49 0° 204° (SSW) 2,755 7.8 -12.0°
